Regional Weather Roundup
Issued by NWS

Home | Current Version | Previous Version | Text Only | Print | Product List | Glossary On
Versions: 1 2 3 4 5 6 7 8 9 10 11 12 13 14 15 16 17 18 19 20 21 22 23 24 25 26 27 28 29 30 31 32 33 34 35 36 37 38 39 40 41 42 43 44 45 46 47 48 49 50
000
ASUS45 KREV 062210
RWRNV
NEVADA REGIONAL WEATHER ROUNDUP
NATIONAL WEATHER SERVICE RENO NV
300 PM PDT WED MAY 06 2015

NOTE: "FAIR" INDICATES FEW OR NO CLOUDS BELOW 12,000 FEET WITH NO
SIGNIFICANT WEATHER AND/OR OBSTRUCTIONS TO VISIBILITY.

NVZ001-003-004-062300-
WESTERN NEVADA

CITY           SKY/WX    TMP DP  RH WIND       PRES   REMARKS
RENO           PTSUNNY   56  32  40 N24G36    29.82R
CARSON CITY    FAIR      64  27  24 W9G23     29.77F
MINDEN         FAIR      66  18  15 W16G32    29.77
SLIDE MTN        N/A     39  21  48 SW8         N/A
FALLON         MOSUNNY   70  18  13 NW8       29.71F
LOVELOCK       PTSUNNY   69  16  13 N9G21     29.72F
HAWTHORNE      SUNNY     70  21  16 W13       29.69F
$$

NVZ002-CAZ072-073-062300-
NORTHERN AND CENTRAL SIERRA

CITY           SKY/WX    TMP DP  RH WIND       PRES   REMARKS
S. LAKE TAHOE  MOSUNNY   59  18  20 S14G26    29.83F
TRUCKEE        PTSUNNY   48  30  49 NW10G18   29.85R
SQUAW VLY 8000   N/A     45  30  57 S3          N/A
SUSANVILLE     SUNNY     64  10  12 N14G20    29.81F
BLUE CANYON    PTSUNNY   50  40  68 W10G18    29.88R
MAMMOTH LAKES  FAIR      63   9  12 W16G32    29.81F
BRIDGEPORT     FAIR      59  17  19 SW13G24   29.80S
$$

NVZ030-031-036-062300-
NORTHERN NEVADA

CITY           SKY/WX    TMP DP  RH WIND       PRES   REMARKS
ELKO           CLOUDY    63  21  20 W12       29.70F
WINNEMUCCA     MOSUNNY   61  23  23 NW21G30   29.75F
WENDOVER       CLOUDY    57  43  58 NW15      29.74R
$$

NVZ035-037-062300-
CENTRAL NEVADA

CITY           SKY/WX    TMP DP  RH WIND       PRES   REMARKS
ELY            LGT RAIN  49  36  61 W17G26    29.82R
EUREKA           N/A     53  37  54 SW9       29.75F
$$

NVZ013-014-062300-
SOUTH CENTRAL NEVADA

CITY           SKY/WX    TMP DP  RH WIND       PRES   REMARKS
TONOPAH        NOT AVBL
$$

NVZ017-020-022-062300-
SOUTHERN NEVADA

CITY           SKY/WX    TMP DP  RH WIND       PRES   REMARKS
LAS VEGAS      MOSUNNY   85  22  10 S20G26    29.59F
N. LAS VEGAS   SUNNY     83  15   8 SW16G24   29.61F
NELLIS AFB     SUNNY     84  32  15 S23G32    29.60F
HENDERSON      SUNNY     83  24  11 SW13G25   29.66F
MERCURY        SUNNY     79  20  11 S22G32    29.66F
$$



USA.gov is the U.S. government's official web portal to all federal, state and local government web resources and services.